Wind_Speed
2 1 1 2 3 5 1 1 4 2 1 3 4 6 7 3 2 4 9 3 4 8 10 12 15 17 15 17 21 25 26 24 17 12 12 9 8 9 11 12 15 17 15 14 15 16 18 18 22
2 3 3 2 3 3 4 3 7 6 6 2 16 17 4 1 8 9 8 5 8 15 15 14 14 13 17 22 26 26 25 21 18 15 13 13 11 10 11 13 14 18 16 16 14 17 17 19 18
1 4 2 3 2 5 5 5 6 8 11 6 3 5 6 5 7 6 2 9 16 13 10 15 19 22 24 24 24 25 25 22 18 17 16 15 15 13 11 13 17 16 18 16 15 16 18 19 20
3 1 2 3 4 3 7 7 12 9 6 5 7 6 7 3 4 1 8 13 14 10 11 14 15 17 19 20 23 25 24 23 21 17 15 17 20 20 18 15 17 18 19 17 16 18 18 18 19
2 2 1 3 5 4 4 9 21 7 11 7 12 3 5 4 3 5 10 11 8 8 11 11 12 16 17 20 23 23 24 23 21 15 13 15 19 20 20 19 17 19 19 20 18 20 18 18 18
1 1 2 3 3 4 3 8 12 9 11 11 14 8 4 3 4 7 7 9 6 6 5 12 15 13 17 22 24 22 23 20 19 18 18 18 16 21 19 21 17 20 18 22 21 20 20 18 19
6 3 5 7 8 2 5 9 3 7 8 3 10 5 7 6 6 4 7 8 7 10 13 13 14 18 21 23 20 18 22 18 21 22 23 22 21 24 23 20 18 17 19 23 22 21 20 19 19
4 4 5 5 4 3 4 6 11 16 4 10 8 6 4 10 4 4 7 7 10 10 13 17 21 23 25 28 24 21 17 19 23 25 27 30 32 26 20 16 18 17 19 22 22 21 20 19 20
16 1 3 3 5 4 8 4 3 7 12 5 7 9 13 6 3 10 10 11 12 13 16 18 20 24 26 26 25 22 23 22 24 27 31 31 21 19 19 16 16 16 19 22 21 20 19 20 21
4 2 7 5 7 7 12 12 9 6 13 15 16 13 8 1 9 11 12 12 16 15 19 18 20 25 26 21 19 16 17 17 20 16 12 12 14 15 17 16 16 17 19 19 20 19 19 21 21
5 6 5 6 9 14 10 10 8 17 3 8 11 12 4 5 9 12 12 13 14 15 18 18 22 24 19 19 15 8 7 11 10 4 4 6 10 15 18 16 13 14 17 18 19 19 20 23 23
8 8 9 6 8 8 6 9 5 5 7 10 9 8 2 5 7 10 12 13 16 17 19 20 20 20 17 18 13 6 4 7 5 4 4 8 12 14 15 13 11 12 15 17 19 21 21 22 28
5 5 12 11 8 9 9 6 8 16 16 10 8 7 2 3 4 8 10 14 14 19 18 18 15 19 19 14 14 6 2 4 5 5 8 10 12 14 10 10 10 10 14 17 18 21 23 25 31
7 10 14 8 8 8 5 4 7 14 15 11 13 9 5 2 3 6 11 13 15 18 15 15 13 18 17 14 14 12 7 6 5 6 10 10 11 8 7 7 9 10 14 17 19 23 28 30 36
12 5 3 7 9 5 6 0 5 22 16 16 17 12 7 3 2 7 9 12 14 18 13 14 15 14 15 8 12 9 7 6 9 10 11 9 6 3 3 6 7 8 15 19 24 29 30 37 37
4 5 3 5 9 4 11 8 7 24 20 17 20 15 9 6 3 6 5 10 11 17 12 16 19 16 17 9 11 10 10 10 11 10 7 4 2 1 4 6 8 11 19 23 28 32 39 39 39
4 4 6 4 12 6 4 7 5 27 21 19 23 19 13 9 6 6 4 7 11 15 13 17 17 13 15 9 11 10 10 10 9 8 8 4 2 2 5 8 10 9 21 26 30 32 38 39 38
5 5 5 6 6 6 6 8 8 27 24 21 26 22 16 11 6 8 4 5 10 14 12 17 18 18 17 15 11 11 10 12 11 11 10 8 7 6 12 12 18 23 25 27 32 34 38 34 33
6 6 9 4 6 7 10 7 13 22 20 21 25 24 19 12 8 11 6 4 7 12 10 14 17 16 15 12 13 11 10 11 11 12 13 11 10 6 20 27 28 24 26 32 35 36 35 31 34
7 9 12 6 8 8 8 12 9 13 20 28 29 26 22 17 11 11 8 3 6 9 9 12 16 16 18 15 13 13 13 14 14 14 15 14 14 17 19 17 24 30 33 29 31 32 32 31 39
7 8 11 6 1 6 4 6 5 8 4 20 28 27 22 18 15 13 11 4 5 5 12 8 10 15 16 19 19 15 14 16 16 17 18 18 17 23 24 26 24 31 25 28 33 30 41 44 41
9 8 14 6 7 6 4 4 5 6 8 12 23 27 25 21 15 15 13 6 5 5 8 10 11 15 15 13 16 19 17 19 19 19 18 20 13 18 18 20 20 23 21 23 23 29 32 34 32
10 7 8 6 7 4 3 3 6 7 5 9 18 30 28 24 18 19 13 8 7 7 5 12 13 16 14 12 11 17 22 21 21 18 18 19 21 13 15 19 19 18 19 18 20 22 24 23 24
8 4 5 5 3 0 7 5 4 6 15 7 17 27 31 27 20 18 16 10 10 9 6 8 14 12 11 12 13 13 16 18 18 20 20 20 21 18 14 15 18 17 21 20 17 23 21 13 19
5 6 2 3 4 6 1 2 10 11 9 17 22 29 34 29 23 23 21 14 13 11 9 6 6 7 9 10 10 11 12 12 15 17 19 21 20 18 20 19 18 20 21 20 19 21 20 14 18
7 9 6 7 3 9 6 4 7 5 21 28 36 39 36 31 26 26 21 16 16 14 8 8 5 5 8 10 9 8 9 8 11 15 21 24 25 24 21 22 25 24 20 19 14 18 16 16 16
5 4 9 6 3 1 4 6 6 2 8 17 23 32 38 34 30 28 19 18 15 17 10 12 8 5 8 8 7 6 3 8 11 14 17 19 20 21 22 21 22 24 23 21 24 23 23 23 21
11 6 3 2 5 5 4 4 6 3 9 10 16 28 35 35 32 27 21 21 16 15 12 16 8 7 9 9 9 10 9 9 11 12 16 19 19 18 17 18 22 23 22 22 24 24 24 25 24
1 3 5 4 5 3 3 6 7 11 13 18 22 31 42 39 36 29 25 23 19 17 13 16 13 10 10 10 9 10 11 12 12 12 17 19 19 19 21 21 22 22 23 25 27 26 25 25 24
2 8 7 4 4 2 4 7 6 8 9 23 28 32 41 41 37 30 28 25 22 21 17 20 16 12 11 8 7 7 10 12 13 14 17 19 19 20 18 19 20 18 20 20 21 23 22 22 21
Wind_Direction
158 185 14 17 46 65 350 11 149 158 59 139 124 123 125 91 125 202 143 144 293 298 309 311 297 292 294 303 307 310 311 307 295 268 260 259 265 267 257 247 245 242 238 231 232 224 217 218 216
222 260 354 63 95 95 277 212 157 176 172 132 119 124 97 90 111 149 197 268 290 306 301 294 301 300 300 307 307 308 307 304 297 272 259 254 257 264 269 259 244 240 237 232 233 226 221 217 219
248 295 344 112 128 184 186 218 176 163 146 128 142 145 102 112 117 150 235 291 293 307 301 294 302 301 300 300 301 303 302 304 296 279 265 258 260 264 265 273 252 235 235 232 232 226 222 218 216
190 130 237 104 219 246 174 189 172 148 163 151 138 79 89 116 181 198 331 326 358 329 309 305 293 287 288 292 296 297 300 303 298 278 270 269 265 261 264 274 265 235 231 229 222 226 220 218 215
269 192 52 249 227 173 224 182 161 163 170 155 131 113 100 88 2 352 7 358 350 316 298 289 293 295 293 293 297 299 300 298 291 273 259 284 271 263 259 262 260 235 224 226 219 222 219 216 211
251 112 46 259 224 183 224 178 131 148 157 125 117 117 126 62 44 47 2 348 342 333 296 303 316 308 310 308 309 306 299 283 268 266 268 270 272 272 269 253 253 231 225 220 219 218 217 210 207
171 93 234 248 159 150 215 176 148 126 115 98 126 114 138 128 100 59 355 333 346 331 325 324 311 306 319 319 303 284 287 273 268 268 272 267 271 286 266 244 242 224 221 212 212 214 217 206 201
214 113 317 15 145 205 209 171 129 126 129 128 135 161 153 133 105 345 334 331 328 332 329 324 320 320 315 317 308 300 286 271 261 261 264 267 274 265 245 235 228 222 208 207 209 209 211 201 198
271 186 258 154 141 208 181 158 151 136 140 107 106 115 129 122 311 326 328 325 334 330 336 331 323 320 319 318 309 295 279 284 286 279 271 268 247 244 232 218 212 209 200 203 203 208 204 197 196
147 112 180 198 164 180 185 162 158 150 103 103 97 115 120 26 342 348 345 346 343 343 340 333 322 323 325 328 328 309 285 294 296 282 267 223 223 227 204 198 197 196 194 202 201 202 198 195 191
273 191 218 162 147 161 142 161 164 120 88 144 138 137 115 350 350 352 351 350 356 351 339 331 329 336 334 340 343 329 324 325 324 279 259 216 205 196 181 181 184 191 194 196 197 198 195 197 184
223 197 161 151 86 139 155 151 102 138 157 151 138 154 123 3 7 0 356 3 6 349 341 334 341 352 346 343 340 352 355 341 14 103 148 152 151 169 182 176 180 187 188 196 198 193 191 184 176
107 138 127 130 130 116 119 130 139 137 147 135 154 163 109 49 31 7 4 16 355 354 347 345 353 0 4 9 14 8 356 19 42 104 133 147 153 160 171 179 186 184 191 195 195 191 181 175 173
141 139 147 144 152 156 135 179 141 172 160 145 170 154 138 88 30 12 18 14 358 358 358 9 2 17 19 31 26 31 55 41 57 117 150 150 149 157 180 180 195 195 195 196 191 177 174 170 170
156 123 159 181 177 176 151 193 204 175 174 171 163 157 154 142 16 37 30 7 2 5 10 7 19 3 12 16 18 25 32 44 74 116 146 151 156 132 187 185 197 192 192 189 176 169 173 167 167
164 90 164 256 155 189 140 257 221 177 178 175 166 164 164 162 77 69 39 6 8 10 17 23 30 26 28 46 23 46 68 81 103 106 117 125 142 246 190 182 177 181 177 174 170 164 167 163 162
345 225 230 291 192 142 144 247 230 177 179 170 172 169 169 157 120 104 62 13 20 19 40 42 35 30 33 48 44 55 67 76 84 94 99 81 72 127 175 163 165 196 173 168 168 170 155 147 149
251 277 256 219 216 157 193 231 194 188 182 182 173 169 169 165 134 113 100 33 31 30 44 43 42 55 49 55 59 61 72 76 82 89 85 88 96 83 122 155 141 161 163 164 160 160 165 167 160
230 247 263 268 229 148 213 216 198 200 192 174 171 168 169 166 138 119 132 61 38 35 48 47 44 53 46 55 62 70 81 80 80 83 87 89 89 140 152 127 139 145 161 155 148 150 155 160 159
246 258 271 307 227 158 208 241 195 194 204 182 173 173 171 162 148 134 157 88 67 40 40 54 52 63 62 59 61 69 77 82 78 78 90 99 112 128 140 134 145 135 138 149 153 154 156 160 150
256 243 262 225 99 317 135 293 182 214 171 178 181 182 174 176 155 153 165 117 104 61 33 65 54 56 67 57 60 71 77 84 80 86 87 91 108 134 124 126 129 135 127 129 152 144 142 144 144
247 235 251 215 146 209 154 254 290 199 171 164 176 182 175 172 159 162 168 149 137 115 43 55 70 78 68 52 59 69 78 81 77 79 82 105 126 154 145 153 140 146 141 135 147 147 150 152 144
231 222 232 184 169 155 231 94 265 130 184 175 185 185 179 176 167 168 181 161 149 139 81 57 97 84 63 61 74 72 84 84 85 102 94 98 111 132 142 169 154 141 145 153 157 162 156 154 159
209 190 37 57 91 8 239 169 263 188 201 173 191 184 180 176 173 174 178 162 166 137 148 93 112 95 82 75 79 85 83 89 83 81 83 87 104 106 106 114 129 127 142 142 136 147 144 131 153
100 77 290 332 352 228 241 120 247 213 192 180 180 183 181 176 173 176 173 172 183 155 158 132 115 110 105 96 94 92 89 84 86 88 85 87 97 98 99 124 131 130 137 142 139 146 150 136 158
178 153 161 208 205 264 26 269 267 286 203 183 183 180 177 176 176 178 179 182 191 177 162 170 156 123 133 121 110 104 108 103 94 99 99 100 99 99 101 113 119 117 128 134 139 138 139 128 140
206 161 190 160 198 106 246 291 341 229 109 141 159 170 177 177 179 181 185 182 192 194 185 187 170 149 157 138 140 152 129 109 109 115 113 108 107 103 109 106 107 111 118 126 132 127 121 130 127
178 175 109 19 193 247 273 242 228 235 160 149 163 177 179 180 180 184 188 185 185 176 197 191 172 144 145 147 149 150 145 127 112 109 121 117 112 114 116 115 126 131 123 130 129 130 131 128 131
98 84 70 113 141 190 247 257 214 197 173 172 181 185 181 183 183 185 188 187 186 186 194 190 170 160 141 141 142 149 151 148 142 124 125 131 125 120 125 120 131 133 134 136 130 126 131 130 131
129 155 122 114 301 305 212 266 250 220 162 173 181 186 185 186 184 186 188 189 190 192 196 181 176 172 160 148 145 150 150 157 153 141 132 139 141 130 131 135 131 139 149 147 144 142 140 136 138
Height
1531 1533 1533 1534 1544 1547 1553 1548 1538 1538 1536 1534 1533 1533 1537 1537 1538 1552 1542 1541 1539 1538 1537 1536 1534 1533 1532 1531 1529 1527 1525 1523 1522 1522 1522 1521 1521 1520 1520 1520 1521 1522 1524 1525 1526 1527 1529 1531 1532
1532 1534 1534 1534 1548 1565 1559 1540 1541 1534 1532 1532 1534 1534 1535 1539 1538 1540 1540 1538 1536 1535 1534 1533 1532 1530 1530 1528 1526 1523 1521 1520 1518 1518 1518 1518 1518 1517 1517 1518 1518 1519 1520 1522 1524 1525 1527 1529 1531
1532 1534 1535 1539 1551 1559 1554 1536 1533 1531 1530 1531 1532 1533 1535 1538 1539 1539 1539 1538 1536 1532 1531 1530 1529 1528 1527 1524 1522 1520 1518 1516 1514 1513 1513 1514 1514 1514 1514 1514 1514 1515 1517 1519 1521 1523 1524 1527 1530
1531 1534 1536 1543 1544 1534 1532 1531 1528 1531 1531 1530 1531 1535 1537 1539 1539 1538 1538 1535 1532 1529 1529 1528 1527 1525 1523 1521 1519 1516 1514 1512 1510 1509 1509 1510 1510 1510 1510 1510 1510 1511 1513 1516 1518 1521 1522 1525 1528
1531 1531 1541 1543 1538 1531 1529 1526 1525 1527 1527 1528 1528 1535 1538 1539 1538 1538 1535 1533 1531 1528 1527 1526 1525 1522 1520 1517 1514 1511 1509 1507 1506 1505 1505 1505 1505 1504 1505 1506 1505 1506 1509 1512 1515 1518 1520 1523 1526
1529 1531 1546 1550 1536 1530 1527 1525 1523 1524 1526 1527 1529 1533 1537 1538 1537 1536 1534 1531 1529 1527 1526 1525 1521 1519 1516 1513 1510 1506 1504 1502 1501 1500 1500 1500 1500 1500 1500 1501 1501 1502 1505 1508 1511 1515 1517 1520 1524
1526 1533 1542 1535 1534 1532 1528 1525 1524 1526 1526 1527 1528 1533 1536 1537 1536 1535 1532 1530 1527 1525 1524 1522 1520 1517 1513 1509 1505 1502 1500 1498 1496 1495 1494 1494 1494 1495 1495 1495 1497 1498 1501 1504 1507 1512 1515 1518 1522
1523 1527 1534 1531 1535 1532 1523 1524 1524 1524 1527 1527 1527 1531 1534 1535 1534 1532 1530 1528 1526 1524 1522 1519 1516 1513 1509 1504 1500 1497 1495 1493 1491 1489 1488 1488 1487 1489 1490 1491 1493 1495 1497 1500 1504 1508 1512 1516 1519
1521 1532 1537 1526 1529 1525 1524 1523 1524 1524 1525 1527 1528 1530 1531 1533 1532 1530 1528 1526 1524 1522 1520 1516 1513 1509 1504 1499 1495 1491 1489 1486 1483 1481 1479 1479 1480 1483 1485 1487 1489 1492 1494 1498 1502 1506 1510 1514 1517
1518 1531 1521 1515 1516 1520 1520 1520 1521 1524 1526 1530 1530 1531 1532 1531 1529 1527 1525 1524 1522 1520 1517 1514 1510 1506 1500 1494 1489 1485 1484 1482 1478 1474 1473 1473 1475 1478 1481 1484 1486 1489 1492 1496 1501 1504 1508 1511 1514
1515 1520 1515 1512 1512 1514 1517 1519 1519 1523 1529 1528 1530 1530 1529 1528 1526 1526 1525 1523 1521 1519 1515 1511 1507 1501 1496 1491 1487 1483 1482 1479 1474 1472 1471 1471 1473 1476 1479 1482 1484 1487 1491 1494 1498 1502 1506 1508 1514
1516 1508 1509 1510 1510 1514 1516 1517 1518 1519 1523 1526 1528 1527 1526 1525 1525 1525 1525 1522 1521 1517 1513 1509 1504 1499 1493 1489 1485 1481 1479 1478 1474 1472 1471 1472 1474 1477 1480 1481 1484 1486 1490 1493 1497 1500 1503 1507 1512
1508 1508 1510 1509 1510 1512 1515 1517 1517 1519 1521 1525 1525 1526 1525 1525 1525 1524 1525 1522 1520 1517 1512 1507 1503 1498 1493 1488 1484 1481 1479 1478 1476 1474 1474 1475 1476 1478 1480 1482 1484 1486 1489 1492 1495 1498 1502 1507 1512
1504 1506 1507 1508 1508 1510 1513 1516 1516 1521 1519 1522 1523 1524 1524 1524 1524 1524 1524 1522 1520 1516 1511 1507 1503 1498 1493 1490 1487 1483 1480 1478 1477 1476 1476 1477 1479 1480 1481 1482 1485 1487 1489 1491 1493 1496 1501 1507 1511
1503 1508 1507 1506 1506 1508 1512 1516 1514 1515 1517 1520 1522 1522 1523 1524 1523 1523 1523 1523 1521 1516 1512 1507 1503 1498 1495 1491 1489 1485 1482 1480 1478 1478 1479 1480 1481 1481 1482 1482 1484 1487 1488 1489 1491 1496 1501 1506 1512
1505 1509 1519 1506 1503 1506 1511 1524 1511 1512 1514 1517 1520 1521 1521 1524 1522 1522 1523 1523 1522 1517 1512 1508 1503 1500 1496 1493 1490 1486 1484 1481 1480 1480 1481 1482 1482 1482 1482 1482 1483 1484 1486 1489 1493 1497 1502 1507 1514
1511 1522 1517 1509 1501 1505 1509 1517 1505 1508 1511 1514 1516 1518 1520 1522 1521 1521 1522 1523 1522 1518 1514 1509 1505 1501 1498 1494 1492 1488 1486 1484 1482 1482 1482 1482 1481 1481 1480 1480 1480 1480 1488 1491 1495 1500 1505 1509 1515
1523 1521 1512 1512 1502 1503 1509 1509 1508 1507 1507 1510 1512 1516 1518 1520 1520 1520 1522 1523 1522 1519 1516 1511 1507 1504 1500 1497 1493 1491 1488 1486 1484 1484 1484 1483 1483 1481 1479 1479 1481 1485 1489 1493 1496 1500 1507 1512 1517
1507 1510 1511 1503 1498 1502 1506 1505 1506 1505 1508 1509 1511 1513 1517 1519 1520 1520 1522 1523 1523 1521 1518 1513 1509 1506 1503 1499 1496 1493 1491 1488 1487 1487 1486 1486 1485 1484 1483 1483 1482 1484 1492 1495 1499 1504 1509 1514 1519
1504 1509 1507 1497 1492 1499 1503 1504 1502 1502 1500 1502 1507 1511 1514 1517 1519 1519 1522 1523 1523 1522 1519 1516 1512 1509 1506 1502 1498 1496 1493 1492 1491 1491 1490 1489 1490 1490 1490 1492 1493 1495 1497 1500 1503 1507 1511 1517 1520
1502 1505 1503 1503 1496 1497 1499 1508 1501 1499 1501 1504 1507 1509 1512 1515 1516 1518 1521 1523 1523 1522 1520 1517 1514 1512 1509 1505 1501 1498 1497 1496 1496 1495 1494 1494 1493 1497 1498 1499 1500 1503 1504 1505 1508 1511 1512 1515 1521
1507 1493 1492 1496 1506 1523 1498 1532 1500 1496 1500 1502 1505 1507 1509 1512 1515 1516 1520 1522 1523 1523 1522 1518 1517 1514 1512 1509 1506 1503 1501 1500 1500 1499 1500 1499 1499 1503 1503 1504 1505 1508 1511 1513 1515 1516 1520 1524 1525
1495 1487 1489 1490 1502 1506 1502 1526 1503 1496 1503 1502 1502 1504 1507 1509 1512 1514 1519 1522 1523 1523 1523 1520 1519 1517 1515 1512 1509 1508 1506 1505 1505 1504 1505 1503 1503 1496 1505 1507 1509 1511 1514 1517 1518 1520 1525 1528 1530
1477 1485 1492 1499 1510 1530 1507 1512 1510 1503 1490 1496 1499 1501 1504 1508 1512 1513 1518 1521 1523 1523 1524 1523 1521 1519 1517 1515 1513 1512 1511 1511 1510 1511 1510 1510 1509 1510 1510 1509 1510 1512 1515 1519 1521 1524 1528 1531 1533
1480 1498 1526 1537 1541 1537 1497 1509 1494 1482 1480 1482 1490 1496 1501 1506 1509 1512 1516 1519 1522 1523 1524 1524 1522 1521 1520 1518 1516 1515 1514 1514 1514 1515 1515 1514 1513 1512 1513 1515 1515 1518 1521 1523 1526 1529 1532 1534 1537
1482 1494 1523 1534 1541 1514 1497 1509 1493 1471 1470 1475 1482 1489 1498 1504 1507 1510 1514 1518 1520 1523 1524 1524 1523 1522 1521 1520 1519 1519 1519 1518 1517 1518 1520 1520 1519 1518 1518 1517 1521 1523 1526 1528 1530 1534 1535 1538 1540
1479 1492 1482 1502 1504 1514 1507 1489 1479 1473 1473 1479 1485 1491 1495 1500 1504 1508 1513 1516 1519 1522 1523 1524 1524 1523 1522 1522 1521 1521 1521 1522 1521 1522 1523 1523 1523 1524 1525 1526 1527 1530 1531 1533 1535 1536 1538 1541 1544
1461 1466 1493 1506 1522 1525 1510 1495 1501 1480 1479 1482 1486 1489 1493 1498 1502 1507 1510 1515 1518 1521 1523 1524 1525 1524 1523 1523 1523 1523 1523 1524 1524 1525 1526 1527 1527 1528 1530 1531 1533 1535 1537 1538 1539 1540 1542 1544 1547
1469 1480 1486 1494 1501 1523 1532 1509 1476 1471 1472 1476 1480 1485 1487 1494 1499 1504 1508 1513 1517 1520 1522 1523 1525 1524 1524 1524 1524 1524 1525 1526 1527 1528 1529 1530 1531 1532 1534 1536 1537 1539 1540 1542 1543 1544 1546 1548 1550
1460 1469 1479 1504 1502 1503 1508 1506 1462 1461 1464 1467 1474 1480 1486 1490 1496 1502 1506 1511 1515 1518 1521 1522 1524 1524 1524 1525 1525 1525 1526 1527 1528 1530 1531 1533 1535 1537 1538 1540 1541 1542 1544 1546 1547 1549 1551 1553 1555